User: anonymous   Login
Location: Unspecified
(0.0000°N, 0.0000°E)
Time: 07:58:35
(UTC+00:00)
Language:

RISAT 1 - Orbit

View from above orbital plane
View from above orbital plane
View from above satellite
View from above satellite

Ground track
Ground track

The orbit data is extracted from the following two-line orbital elements,

1 38248U 12017A   16182.77666817  .00000597  00000-0  41749-4 0  9992
2 38248  97.5620 189.2181 0005384 148.0349 327.0563 15.08964585230243
Epoch (UTC): 30 June 2016 18:38:24
Eccentricity: 0.0005384
inclination: 97.5620°
perigee height: 535 km
apogee height: 543 km
right ascension of ascending node: 189.2181°
argument of perigee: 148.0349°
revolutions per day: 15.08964585
mean anomaly at epoch: 327.0563°
orbit number at epoch: 23024

The dashed part of the orbit path shows where the satellite is in the earth's shadow,  

DLR